[[{"header":{"parameterUnit":"m.s-1","parameterCategory":1,"la1":30.2992,"la2":30.254,"lo1":-89.0895,"lo2":-89.0443,"dy":0.0025,"dx":0.0025,"nx":19,"ny":19,"refTime":"2026-03-08T09:00:00:Z","depth":0,"parameterNumber":2,"parameterNumberName":"U-component_of_WINDS"},"data":[0,0,0,0.4504,0.4504,0.4547,0.4547,0.4598,0.4598,0,0,0,0,0,0,0,0,0,0,0,0.4487,0.4487,0.4504,0.4505,0.4547,0.4547,0.4597,0.4598,0,0,0,0,0,0,0,0,0,0,0,0.4487,0.4487,0.4488,0.4505,0.4547,0.4547,0.4597,0.4567,0,0,0,0,0,0,0,0,0,0,0.4527,0.4507,0.4487,0.4488,0.4505,0.4547,0.4547,0.4566,0.4569,0.4576,0,0.458,0,0.459,0.4601,0.4601,0,0,0,0.4508,0.4505,0.4519,0.4488,0.4505,0.4547,0.4529,0.4568,0.4571,0.458,0.4581,0.4583,0.459,0.4601,0.4601,0.4626,0.4626,0,0,0.4506,0.4493,0.4517,0.4521,0.4513,0.4527,0.453,0.457,0.457,0.4581,0.4584,0.4591,0.4601,0.4602,0.4626,0.4626,0,0,0,0.4497,0.4491,0.4505,0.4519,0.4527,0.4529,0.4532,0.4569,0.4574,0.4585,0.4592,0.4602,0.4602,0.4626,0.4626,0.4611,0,0,0,0.4495,0.4486,0.4504,0.4497,0.4526,0.4548,0.4529,0.4571,0.4576,0.4592,0.4602,0.4603,0.4626,0.4626,0.4612,0.4606,0,0,0,0.4486,0.4485,0.449,0.4496,0.4514,0.4548,0.4556,0.4573,0.458,0.4601,0.4603,0.4627,0.4626,0.4612,0.4607,0.4608,0,0,0,0.4473,0.4477,0.4489,0.4497,0.4514,0.4538,0.4555,0.4575,0.4591,0.4602,0.4626,0.4626,0.4612,0.4608,0.4609,0.4607,0.4605,0,0,0.4472,0.4477,0.4482,0.4494,0.4513,0.4532,0.4549,0.4576,0.4591,0.4614,0.4615,0.4611,0.4607,0.4608,0.4599,0.4597,0,0,0,0.4478,0.4482,0.4489,0.4503,0.4523,0.4539,0.4565,0.4575,0.4595,0.46,0.4613,0.4611,0.4612,0.4612,0.461,0.4612,0.4626,0.4626,0.4626,0.446,0.4476,0.4486,0.4507,0.452,0.4545,0.4557,0.4575,0.459,0.4592,0.4599,0.4591,0.459,0.4589,0.4591,0.46,0.46,0.46,0.46,0.446,0.4467,0.4483,0.4499,0.4516,0.453,0.4555,0.4564,0.458,0.4588,0.459,0.4597,0.4587,0.4589,0.4599,0.4599,0.4599,0.4599,0.4599,0.4449,0.4455,0.4466,0.4486,0.45,0.4522,0.4535,0.4551,0.4567,0.4568,0.4577,0.4577,0.4579,0.4571,0.4571,0.4571,0.4571,0.4571,0.4571,0.4434,0.4446,0.4455,0.4475,0.4485,0.45,0.4525,0.4536,0.4552,0.4562,0.4563,0.4576,0.4583,0.4584,0.4571,0.4571,0.4571,0.4571,0.4571,0.4428,0.4431,0.4444,0.4454,0.4478,0.449,0.451,0.453,0.4541,0.4547,0.456,0.4563,0.457,0.4571,0.4572,0.4557,0.4557,0.4557,0.4557,0.4418,0.4423,0.4439,0.4453,0.447,0.4488,0.4503,0.4521,0.4542,0.455,0.4555,0.4558,0.4558,0.4565,0.4566,0.4567,0.4551,0.4551,0.4551,0.4415,0.4421,0.4431,0.4449,0.4468,0.4485,0.4499,0.4516,0.454,0.4551,0.4557,0.4557,0.4562,0.4562,0.4574,0.4576,0.4578,0,0]},{"header":{"parameterUnit":"m.s-1","parameterCategory":1,"la1":30.2992,"la2":30.254,"lo1":-89.0895,"lo2":-89.0443,"dy":0.0025,"dx":0.0025,"nx":19,"ny":19,"refTime":"2026-03-08T09:00:00:Z","depth":0,"parameterNumber":3,"parameterNumberName":"V-component_of_WINDS"},"data":[0,0,0,1.0907,1.0907,1.0912,1.0912,1.092,1.092,0,0,0,0,0,0,0,0,0,0,0,1.0906,1.0906,1.0907,1.0907,1.0912,1.0912,1.092,1.092,0,0,0,0,0,0,0,0,0,0,0,1.0906,1.0906,1.0906,1.0907,1.0912,1.0912,1.092,1.0916,0,0,0,0,0,0,0,0,0,0,1.091,1.0911,1.0906,1.0906,1.0907,1.0912,1.0912,1.0915,1.0916,1.0919,0,1.0921,0,1.0921,1.0921,1.0921,0,0,0,1.0906,1.0911,1.0911,1.0907,1.0907,1.0912,1.0909,1.0916,1.0916,1.0919,1.0921,1.0921,1.0921,1.0921,1.0921,1.0939,1.0939,0,0,1.0906,1.0908,1.0911,1.0911,1.0911,1.0909,1.0909,1.0916,1.0918,1.0921,1.0922,1.0921,1.0921,1.0921,1.0939,1.0939,0,0,0,1.0906,1.0908,1.0908,1.0911,1.0912,1.0909,1.091,1.0918,1.0918,1.0922,1.0921,1.0921,1.0921,1.0939,1.0939,1.0948,0,0,0,1.0905,1.0907,1.0908,1.0909,1.0912,1.0915,1.0912,1.0917,1.0918,1.0921,1.0921,1.0921,1.0939,1.0939,1.0947,1.0952,0,0,0,1.0906,1.0908,1.0909,1.0909,1.0911,1.0915,1.0915,1.0917,1.0918,1.0921,1.0921,1.0939,1.0939,1.0947,1.0951,1.0958,0,0,0,1.0907,1.0916,1.0909,1.0919,1.0911,1.092,1.0915,1.0921,1.0925,1.0921,1.0939,1.0939,1.0947,1.0951,1.0958,1.0965,1.0968,0,0,1.092,1.0917,1.0923,1.0917,1.0928,1.0919,1.0931,1.0932,1.093,1.0936,1.0937,1.0947,1.0951,1.0958,1.0982,1.0985,0,0,0,1.0928,1.0932,1.0935,1.0938,1.0939,1.0941,1.094,1.094,1.0946,1.0934,1.0951,1.0953,1.0957,1.0961,1.0963,1.0967,1.094,1.094,1.094,1.095,1.0947,1.0957,1.0955,1.0958,1.0957,1.096,1.096,1.0956,1.0961,1.0963,1.0978,1.0982,1.0984,1.0988,1.0966,1.0966,1.0966,1.0966,1.097,1.0976,1.097,1.0978,1.0975,1.0981,1.098,1.0977,1.0983,1.0976,1.0979,1.0973,1.0987,1.099,1.0966,1.0966,1.0966,1.0966,1.0966,1.0985,1.0987,1.0987,1.0992,1.0997,1.0994,1.1,1.0996,1.0993,1.0997,1.0999,1.0999,1.1,1.0998,1.0998,1.0998,1.0998,1.0998,1.0998,1.1001,1.1001,1.1006,1.1008,1.101,1.1012,1.1011,1.1013,1.1014,1.1012,1.1012,1.1008,1.0988,1.0984,1.0999,1.0999,1.0999,1.0999,1.0998,1.1024,1.1018,1.1027,1.1029,1.1031,1.1035,1.1031,1.1035,1.1036,1.1039,1.1034,1.102,1.1017,1.1016,1.1012,1.1034,1.1034,1.1034,1.1034,1.1038,1.1036,1.1044,1.1048,1.1051,1.1047,1.1057,1.1056,1.1055,1.1055,1.1051,1.1046,1.1044,1.1043,1.1041,1.1038,1.1065,1.1066,1.1066,1.1053,1.1051,1.106,1.1058,1.1059,1.1061,1.107,1.1075,1.1071,1.1067,1.1056,1.1055,1.1046,1.1043,1.104,1.1036,1.103,0,0]}]]